Flag for Brazil Weather past 2 weeks in Pirassununga, São Paulo, Brazil

Now
61 °F

Sunny.


Feels Like: 61 °F
Forecast: 50 / 86 °F
Wind: 2 mph from Southeast

Location: Pirassununga Airport

Current Time: Sep 23, 2014 at 9:21:36 AM

Latest Report: Sep 23, 2014 at 8:00 AM


Visibility: 10 mi

Pressure: 30.12 "Hg

Humidity: 72%

Dew point: 52 °F

Location of PirassunungaLocation

Historic Weather in Pirassununga — Graph

°F

Pirassununga temperature yesterday

Maximum temperature yesterday: 79 °F (at 2:00 PM)
Minimum temperature yesterday: 57 °F (at 6:00 AM)
Average temperature yesterday: 69 °F

Past Weeks' High & Low Weather Summary

 TemperatureHumidityPressure
High93 °F (Sep 15, 3:00 PM)100% (Sep 13, 7:00 AM)30.24 "Hg (Sep 13, 7:00 AM)
Low48 °F (Sep 23, 6:00 AM)15% (Sep 11, 3:00 PM)29.86 "Hg (Sep 19, 2:00 PM)
Average75 °F53%30.04 "Hg
* Reported Sep 8 8:00 AM — Sep 23 8:00 AM, Pirassununga, Weather by CustomWeather, © 2014

Note: Actual official high and low records may vary slightly from our data, if they occured in-between our weather recording intervals... More about our weather records

Advertising

Pirassununga weather history for previous 24 hours

 ConditionsComfort  
Time TempWeatherWind HumidityBarometerVisibility
8:00 AM
Sep 23
61 °FSunny.2 mph72%30.12 "Hg10 mi
7:00 AM52 °FSunny.3 mph100%30.09 "Hg10 mi
6:00 AM48 °FClear.2 mph100%30.09 "Hg4 mi
11:00 PM
Sep 22
61 °FClear.9 mph72%30.09 "Hg10 mi
10:00 PM61 °FClear.9 mph72%30.09 "Hg10 mi
9:00 PM64 °FClear.12 mph64%30.07 "Hg10 mi
8:00 PM68 °FClear.9 mph49%30.07 "Hg10 mi
7:00 PM70 °FClear.9 mph43%30.07 "Hg10 mi
6:00 PM73 °FClear.9 mph38%30.04 "Hg10 mi
5:00 PM77 °FSunny.9 mph30%30.04 "Hg10 mi
4:00 PM79 °FSunny.7 mph30%30.04 "Hg10 mi
3:00 PM79 °FSunny.9 mph32%30.04 "Hg10 mi
2:00 PM79 °FSunny.9 mph34%30.07 "Hg10 mi
1:00 PM77 °FSunny.9 mph36%30.09 "Hg10 mi
12:00 PM73 °FSunny.10 mph44%30.12 "Hg10 mi
11:00 AM72 °FSunny.12 mph50%30.15 "Hg10 mi
10:00 AM70 °FSunny.13 mph53%30.18 "Hg10 mi
9:00 AM66 °FSunny.15 mph60%30.18 "Hg10 mi
Weather by CustomWeather, © 2014

See weather overviewHow to use our weather pages